Simultaneous Nadir Overpasses (SNOs) Predictions

Prediction of SNOs between AQUA and NPP Satellite Orbit:

Table of predicted SNOs for the next 14.0 days since TLE Epoch: 6/14/2024
Index Date (AQUA) Time (AQUA) Lat,Lon (AQUA) SZA (AQUA ) Date (NPP) Time (NPP) Lat,Lon (NPP) SZA (NPP ) Distance(km) Time Diff (sec)
1 06/16/2024 04:18:39 -81.25,-140.87 115.15 06/16/2024 04:17:59 -81.25,-140.72 115.15 2.53 40
2 06/16/2024 05:08:01 81.25, 26.67 64.87 06/16/2024 05:08:44 81.25, 26.48 64.88 3.30 43
3 06/18/2024 16:22:18 81.24,-141.94 64.84 06/18/2024 16:21:05 81.24,-141.87 64.88 1.05 73
4 06/18/2024 17:11:40 -81.25, 25.82 115.18 06/18/2024 17:11:49 -81.25, 25.86 115.19 0.76 9
5 06/21/2024 05:15:17 81.25, 25.06 64.81 06/21/2024 05:14:54 81.25, 25.02 64.83 0.71 23
6 06/21/2024 06:04:39 -81.26,-167.15 115.21 06/21/2024 06:05:38 -81.26,-167.24 115.24 1.48 59
7 06/23/2024 17:18:53 -81.25, 24.23 115.16 06/23/2024 17:17:58 -81.25, 24.30 115.13 1.25 55
8 06/23/2024 18:08:14 81.26,-167.99 64.83 06/23/2024 18:08:42 81.26,-168.15 64.84 2.78 28
9 06/26/2024 06:11:50 -81.26,-168.81 115.09 06/26/2024 06:11:47 -81.26,-168.92 115.08 2.01 3
10 06/28/2024 18:15:24 81.26,-169.77 65.05 06/28/2024 18:14:51 81.26,-169.57 65.04 3.29 33



Historial Predications of SNOs between AQUA and NPP
